INMARSAT 5-F4 (42698 NORAD) Tracking and Keplerian Element Data

This shows tracking and keplerian element data for the satellite.

Feedback or suggestion? Click here.




ElementValue
Catalog42698
NameINMARSAT 5-F4
Epoch Orbit2713
Epoch Day286.24979892
Epoch Year2024
RAAN203.019
Inclination0.0188
Eccentricity2.96E-05
Argument of Perigee359.9344
Mean Anonmoly324.8071
Mean Motion1.00272802
Decay Rate7.5E-07
L11 42698U 17025A 24286.24979892 .00000075 00000+0 00000+0 0 9996
L22 42698 0.0188 203.0190 0000296 359.9344 324.8071 1.00272802 27137



Live tracking and technical data element details for INMARSAT 5-F4 (NORAD 42698). INMARSAT 5-F4 can be tracked NOW for your location showing map with azimuth and elevation plus other details from your city location.







IsCatalogInMostPopularTable: catalog: 42698, numindb: 931
Update: records affected: 1



GetName: 42698 INMARSAT 5-F4

Hit Count: updated at: Thu, 23 Jan 2025 15:20:39 GMT